This demonstration page uses our WeatherBlox Daily Observations layout. Learn more.

40.92945, -100.16068

Hourly Observations for July 12, 2015

Temp ( °F °C ) Dew Point ( °F °C ) Humidity (%) Winds ( mph kmh ) Pressure ( in mb ) Visibility ( mi km ) Precip ( " mm )
12:15 am 00:15 Clear 73 22.7 70 21 90 90 ENE 3 6 29.83 1010 7 11.26538 N/A
12:35 am 00:35 Clear 72 22.2 69 20.6 91 91 Calm 29.85 1011 10 16.0934 N/A
12:55 am 00:55 Clear 71 21.5 68 20.1 92 92 NW 3 6 29.85 1011 7 11.26538 N/A
1:15 am 01:15 Clear with Mist and Fog 70 21.3 69 20.3 94 94 Calm 29.85 1011 5 8.0467 N/A
1:35 am 01:35 Clear with Mist and Fog 69 20.7 67 19.7 94 94 WNW 3 6 29.85 1011 5 8.0467 N/A
1:55 am 01:55 Clear with Mist and Fog 68 20.1 66 19.1 94 94 WNW 6 9 29.85 1011 5 8.0467 N/A
2:15 am 02:15 Clear with Mist and Fog 67 19.5 65 18.6 95 95 NNW 6 9 29.85 1011 4 6.43736 N/A
2:35 am 02:35 Clear with Mist and Fog 69 20.5 67 19.7 95 95 Calm 29.85 1011 4 6.43736 N/A
2:55 am 02:55 Clear with Mist and Fog 68 20.1 67 19.4 96 96 Calm 29.83 1010 4 6.43736 N/A
3:15 am 03:15 Clear with Mist and Fog 67 19.5 66 18.7 95 95 Calm 29.83 1010 4 6.43736 N/A
3:35 am 03:35 Clear with Mist and Fog 66 18.7 64 18 96 96 W 3 6 29.83 1010 4 6.43736 N/A
3:55 am 03:55 Clear with Mist and Fog 65 18.3 64 17.6 96 96 Calm 29.85 1011 4 6.43736 N/A
4:15 am 04:15 Mostly Cloudy with Fog 65 18.3 64 17.6 96 96 Calm 29.85 1011 0.5 0.80467 N/A
4:35 am 04:35 Cloudy with Fog 64 18 64 17.5 97 97 W 3 6 29.85 1011 0.25 0.402335 N/A
4:55 am 04:55 Partly Cloudy with Mist and Fog 66 19 65 18.4 96 96 WNW 3 6 29.88 1012 1.75 2.816345 N/A
5:15 am 05:15 Clear with Mist and Fog 66 18.9 65 18.3 96 96 Calm 29.88 1012 2.5 4.02335 N/A
5:35 am 05:35 Clear with Mist and Fog 65 18.6 64 18 96 96 WNW 8 13 29.88 1012 3 4.82802 N/A
5:55 am 05:55 Clear with Mist and Fog 66 18.7 65 18.2 97 97 WNW 6 9 29.88 1012 3 4.82802 N/A
6:15 am 06:15 Clear with Mist and Fog 66 19.1 65 18.6 97 97 W 7 11 29.88 1012 2 3.21868 N/A
6:35 am 06:35 Mostly Cloudy with Mist and Fog 67 19.7 67 19.2 97 97 WNW 7 11 29.85 1011 1.75 2.816345 N/A
6:55 am 06:55 Mostly Cloudy with Mist and Fog 67 19.7 67 19.2 97 97 W 3 6 29.85 1011 1.75 2.816345 N/A
7:15 am 07:15 Sunny with Mist and Fog 68 20 67 19.5 97 97 WNW 5 7 29.85 1011 2 3.21868 N/A
7:35 am 07:35 Sunny with Mist and Fog 69 20.5 68 20 97 97 NW 3 6 29.85 1011 2 3.21868 N/A
7:55 am 07:55 Sunny with Mist and Fog 70 21 69 20.5 97 97 W 3 6 29.85 1011 2.5 4.02335 N/A
8:15 am 08:15 Sunny with Mist and Fog 71 21.9 70 21.3 96 96 WNW 5 7 29.85 1011 4 6.43736 N/A
8:35 am 08:35 Sunny with Mist and Fog 73 22.7 72 22.1 96 96 WNW 5 7 29.88 1012 5 8.0467 N/A
8:55 am 08:55 Sunny with Mist and Fog 75 24 73 23 94 94 NW 7 11 29.85 1011 5 8.0467 N/A
9:15 am 09:15 Sunny 78 25.6 74 23.3 87 87 WNW 7 11 29.85 1011 7 11.26538 N/A
9:35 am 09:35 Sunny 80 26.8 74 23.3 81 81 WNW 6 9 29.8 1009 10 16.0934 N/A
9:55 am 09:55 Sunny 82 27.8 74 23.2 76 76 N 3 6 29.8 1009 10 16.0934 N/A
10:15 am 10:15 Sunny 84 28.7 74 23.3 73 73 NW 3 6 29.8 1009 10 16.0934 N/A
10:35 am 10:35 Sunny 85 29.5 73 22.7 67 67 WNW 8 13 29.77 1008 10 16.0934 N/A
10:55 am 10:55 Sunny 86 30.1 75 23.7 69 69 W 5 7 29.77 1008 10 16.0934 N/A
11:15 am 11:15 Sunny 88 31.1 73 23 62 62 WNW 7 11 29.77 1008 10 16.0934 N/A
11:35 am 11:35 Sunny 89 31.7 73 22.5 58 58 WNW 7 11 29.77 1008 10 16.0934 N/A
11:55 am 11:55 Sunny 90 32 73 22.7 58 58 W 7 11 29.77 1008 10 16.0934 N/A
12:15 pm 12:15 Sunny 91 32.5 72 22.4 55 55 NW 10 17 29.8 1009 10 16.0934 N/A
12:35 pm 12:35 Sunny 91 32.8 70 21 50 50 W 12 19 29.8 1009 10 16.0934 N/A
12:55 pm 12:55 Sunny 92 33.1 69 20.6 48 48 W 9 15 29.77 1008 10 16.0934 N/A
1:15 pm 13:15 Sunny 92 33.2 68 20 46 46 WNW 8 13 29.77 1008 10 16.0934 N/A
1:35 pm 13:35 Sunny 93 33.8 67 19.6 43 43 WNW 6 9 29.74 1007 10 16.0934 N/A
1:55 pm 13:55 Sunny 94 34.5 62 16.6 34 34 WNW 9 15 29.74 1007 10 16.0934 N/A
2:15 pm 14:15 Sunny 94 34.6 63 17 35 35 WNW 7 11 29.74 1007 10 16.0934 N/A
2:35 pm 14:35 Sunny 95 34.8 63 17.3 35 35 WNW 8 13 29.74 1007 10 16.0934 N/A
2:55 pm 14:55 Sunny 96 35.7 62 16.6 32 32 W 7 11 29.74 1007 10 16.0934 N/A
3:15 pm 15:15 Sunny 96 35.6 59 15.2 29 29 W 7 11 29.71 1006 10 16.0934 N/A
3:35 pm 15:35 Sunny 96 35.8 59 14.9 29 29 NNW 7 11 29.71 1006 10 16.0934 N/A
3:55 pm 15:55 Sunny 96 35.3 62 16.9 33 33 NNW 6 9 29.71 1006 10 16.0934 N/A
4:15 pm 16:15 Sunny 95 35.1 62 16.9 34 34 NNW 5 7 29.71 1006 10 16.0934 N/A
4:35 pm 16:35 Sunny 95 35 62 16.8 34 34 NNW 7 11 29.71 1006 10 16.0934 N/A
4:55 pm 16:55 Sunny 95 35 61 16.2 33 33 NNW 6 9 29.71 1006 10 16.0934 N/A
5:15 pm 17:15 Sunny 95 35 62 16.7 34 34 WNW 6 9 29.71 1006 10 16.0934 N/A
5:35 pm 17:35 Sunny 97 35.9 58 14.4 28 28 W 5 7 29.71 1006 10 16.0934 N/A
5:55 pm 17:55 Sunny 97 35.9 57 13.7 26 26 W 7 11 29.71 1006 10 16.0934 N/A
6:15 pm 18:15 Sunny 96 35.4 58 14.4 28 28 W 6 9 29.71 1006 10 16.0934 N/A
6:35 pm 18:35 Sunny 95 34.8 57 14.1 29 29 W 6 9 29.71 1006 10 16.0934 N/A
6:55 pm 18:55 Sunny 94 34.3 57 14.1 30 30 W 6 9 29.68 1005 10 16.0934 N/A
7:15 pm 19:15 Sunny 94 34.2 57 13.8 29 29 W 5 7 29.68 1005 10 16.0934 N/A
7:35 pm 19:35 Sunny 93 33.9 61 16 34 34 Calm 29.68 1005 10 16.0934 N/A
7:55 pm 19:55 Sunny 91 32.6 73 22.8 56 56 SSE 8 13 29.71 1006 10 16.0934 N/A
8:15 pm 20:15 Sunny 89 31.4 76 24.5 67 67 SSE 7 11 29.71 1006 10 16.0934 N/A
8:35 pm 20:35 Sunny 86 30.1 75 24.1 70 70 S 8 13 29.71 1006 10 16.0934 N/A
8:55 pm 20:55 Sunny 84 28.8 74 23.5 73 73 S 7 11 29.74 1007 10 16.0934 N/A
9:15 pm 21:15 Clear 81 27.1 74 23.3 80 80 S 7 11 29.74 1007 10 16.0934 N/A
9:55 pm 21:55 Clear 78 25.7 74 23.2 86 86 S 6 9 29.74 1007 10 16.0934 N/A
10:15 pm 22:15 Clear 78 25.6 74 23.5 88 88 S 5 7 29.74 1007 10 16.0934 N/A
10:35 pm 22:35 Clear 77 25.2 73 23 88 88 S 5 7 29.8 1009 10 16.0934 N/A
10:55 pm 22:55 Clear 76 24.5 72 22 86 86 S 5 7 29.8 1009 10 16.0934 N/A
11:15 pm 23:15 Clear 75 24.1 71 21.5 85 85 S 5 7 29.8 1009 10 16.0934 N/A
11:35 pm 23:35 Clear 75 24.1 70 21.3 84 84 Calm 29.8 1009 7 11.26538 N/A
11:55 pm 23:55 Clear 76 24.4 70 21.1 82 82 Calm 29.77 1008 10 16.0934 N/A

Powered by AerisWeather